Location: Burgberg
(50.1428°N, 11.0671°E)
Time: 02:32:33
(UTC+00:00)

STARLINK-78 - Pass Details

Date: 26 January 2020
Orbit: 528 x 531 km, 53.0° (Epoch: 22 February)

Event Time Altitude Azimuth Distance (km) Brightness Sun altitude
Exits shadow 04:52:55 60° 277° (W) 613 3.5 -19.9°
Maximum altitude 04:53:34 77° 341° (NNW) 550 3.4 -19.8°
Drops below altitude 10° 04:57:37 10° 69° (ENE) 1,784 7.1 -19.2°
Sets 04:59:51 0° 71° (ENE) 2,676 8.3 -18.8°
